FW2094 Weather Reports


time (UTC)temp
C
wind
direction
speed
KPH
gust
KPH
rain 1hr
cm
rain 24hr
cm
rain mn
cm
humidity
%
barometer
mb
20260507221542 11 116 0.0 0.0 0.00 0.00 0.00 86 1013.2
20260507220041 11 116 0.0 0.0 0.00 0.00 0.00 86 1013.2
20260507214546 11 116 0.0 0.0 0.00 0.00 0.00 85 1013.2
20260507213041 11 116 0.0 0.0 0.00 0.00 0.00 84 1013.0
20260507211543 12 116 0.0 0.0 0.00 0.00 0.00 82 1013.0
20260507210039 12 116 0.0 0.0 0.00 0.00 0.00 81 1013.0
20260507204539 13 178 0.0 0.0 0.00 0.00 0.00 79 1013.0
20260507203039 13 178 0.0 1.6 0.00 0.00 0.00 78 1013.2
20260507201542 13 178 0.0 4.8 0.00 0.00 0.00 80 1013.1
20260507200038 12 60 0.0 0.0 0.00 0.00 0.00 85 1013.0
20260507194538 12 55 0.0 0.0 0.00 0.00 0.00 84 1013.0
20260507193038 13 53 0.0 0.0 0.00 0.00 0.00 82 1012.9
20260507191536 13 53 0.0 3.2 0.00 0.00 0.00 81 1012.7
20260507190036 14 53 1.6 3.2 0.00 0.00 0.00 80 1012.5
20260507184535 14 49 0.0 3.2 0.00 0.00 0.00 78 1012.4
20260507183044 15 87 0.0 0.0 0.00 0.00 0.00 75 1012.1
20260507181539 17 86 0.0 0.0 0.00 0.00 0.00 73 1012.1
20260507180035 18 84 0.0 3.2 0.00 0.00 0.00 74 1011.9
20260507174533 19 95 0.0 0.0 0.00 0.00 0.00 71 1011.6
20260507173035 20 92 0.0 4.8 0.00 0.00 0.00 66 1011.5
20260507171532 21 119 0.0 0.0 0.00 0.00 0.00 66 1011.4
20260507170031 21 119 0.0 0.0 0.00 0.00 0.00 65 1011.4
20260507164536 21 216 0.0 4.8 0.00 0.00 0.00 66 1011.4
20260507163037 21 134 0.0 3.2 0.00 0.00 0.00 66 1011.4
20260507161539 20 360 0.0 0.0 0.00 0.00 0.00 70 1011.5
20260507160042 20 360 0.0 1.6 0.00 0.00 0.00 70 1011.5
20260507154531 21 360 1.6 6.4 0.00 0.00 0.00 64 1011.4
20260507153030 21 78 0.0 9.7 0.00 0.00 0.00 69 1011.6
20260507151526 20 360 0.0 8.0 0.00 0.00 0.00 65 1011.7
20260507150028 20 360 0.0 3.2 0.00 0.00 0.00 66 1011.7
20260507144533 21 360 0.0 8.0 0.00 0.00 0.00 63 1011.9
20260507143025 20 360 3.2 6.4 0.00 0.00 0.00 67 1011.7
20260507141524 20 360 0.0 4.8 0.00 0.00 0.00 64 1011.8
20260507140023 20 104 0.0 4.8 0.00 0.00 0.00 63 1011.8
20260507134523 20 75 0.0 6.4 0.00 0.00 0.00 58 1012.0
20260507133023 21 49 1.6 11.3 0.00 0.00 0.00 60 1011.9
20260507131522 20 71 1.6 6.4 0.00 0.00 0.00 63 1012.0
20260507130026 19 30 0.0 4.8 0.00 0.00 0.00 62 1012.0
20260507124536 19 62 1.6 4.8 0.00 0.05 0.00 59 1012.0
20260507123022 21 61 3.2 11.3 0.00 0.05 0.00 53 1012.1
20260507121520 21 21 1.6 8.0 0.00 0.05 0.00 58 1012.1
20260507120019 20 27 1.6 12.9 0.00 0.05 0.00 58 1012.2
20260507114518 21 123 1.6 8.0 0.00 0.38 0.00 61 1012.3
20260507113019 20 105 1.6 6.4 0.00 0.38 0.00 56 1012.4
20260507111517 20 31 0.0 8.0 0.00 0.38 0.00 58 1012.6
20260507110113 20 215 3.2 6.4 0.00 0.38 0.00 53 1012.7
20260507104611 20 294 0.0 8.0 0.00 0.38 0.00 58 1012.9
20260507103006 20 108 0.0 6.4 0.00 0.38 0.00 59 1013.0
20260507101502 18 90 3.2 9.7 0.00 0.38 0.00 57 1013.2
20260507100003 18 282 1.6 9.7 0.00 0.38 0.00 61 1013.2
20260507094558 19 277 1.6 6.4 0.00 0.38 0.00 67 1013.2
20260507093055 18 227 0.0 9.7 0.00 0.38 0.00 63 1013.2
20260507091550 18 360 0.0 4.8 0.00 0.38 0.00 59 1013.1
20260507090047 18 298 1.6 6.4 0.00 0.38 0.00 62 1013.1
20260507084544 18 275 1.6 4.8 0.00 0.43 0.00 64 1013.0
20260507083039 17 345 3.2 8.0 0.00 0.43 0.00 63 1012.9
20260507081535 17 350 0.0 6.4 0.00 0.43 0.00 62 1012.9
20260507080031 17 360 0.0 3.2 0.00 0.43 0.00 65 1012.8
20260507074528 15 360 0.0 0.0 0.00 0.76 0.00 68 1012.8
20260507073022 15 163 0.0 0.0 0.00 0.76 0.00 68 1012.7
20260507071519 14 169 0.0 3.2 0.00 0.76 0.00 72 1012.6
20260507070015 13 169 0.0 3.2 0.00 0.76 0.00 74 1012.5
20260506234502 11 97 1.6 6.4 0.00 4.06 0.00 81 1010.8
20260506233112 11 126 0.0 3.2 0.00 4.06 0.00 80 1010.7
20260506231613 12 126 1.6 4.8 0.00 4.06 0.00 78 1010.8
20260506230104 11 82 1.6 4.8 0.00 4.06 0.00 80 1011.0
20260506224555 12 81 1.6 4.8 0.00 4.06 0.00 80 1011.0
20260506223052 12 82 1.6 4.8 0.00 4.06 0.00 79 1011.0